South Arkansas Regional At Goodwin Field El Dorado US
ICAO: KELD
IATA: ELD
Category: Medium
Scheduled Services: Yes

Elevation: 277 ft
TransAlt. 18000 ft.

Airport Communications:
FORT WORTH CNTR:126.32
ASOS:118.325
JONESBORO RDO:122.65
CTAF/UNICOM:123

KELD Zoom In..

Runways:

(A) RW 04 length 6601 ft width 150 ft
---- / hdg 43

(B) RW 13 length 5100 ft width 100 ft
---- / hdg 133

(C) RW 17 length 3733 ft width 75 ft
---- / hdg 178

(D) RW 22 length 6601 ft width 150 ft
ILS 111.10 / hdg 223

(E) RW 31 length 5100 ft width 100 ft
---- / hdg 313

(F) RW 35 length 3733 ft width 75 ft
---- / hdg 358

Location; KELD
Day. 03 / Time. 10.53 Zulu
* Altimeter: 29.98
* Temperature: 20° c. 68°f.
* Wind from: 000° Speed 00 kn.
Dewpoint: 20° c.
Visibility: 9 Statute Miles.
Clouds: Clear (automated report).

KELD 031053Z AUTO 00000KT 9SM CLR 20/20 A2998 RMK AO2 SLP148 T02000200

Going to: --> -->


Wind - Calm.

 
 
jpsmedia worldairports.se 2020   terms of use